Home   Weather   Leicester   Past weeks

Flag for United Kingdom Past Weather in Leicester, England, United Kingdom — Yesterday and Last 2 Weeks

Now
45 °F

Passing clouds.


Feels Like: 39 °F
Forecast: 33 / 51 °F
Wind: 12 mph from Northeast

Location: East Midlands

Current Time: Apr 26, 2017 at 6:46:58 pm

Latest Report: Apr 26, 2017 at 5:50 pm


Visibility: N/A

Pressure: 30.09 "Hg

Humidity: 61%

Dew Point: 32 °F

Location of LeicesterLocation

Past Weather in Leicester — Graph

°F

Leicester Temperature Yesterday

Maximum temperature yesterday: 50 °F (at 3:20 pm)
Minimum temperature yesterday: 30 °F (at 4:50 am)
Average temperature yesterday: 38 °F

High & Low Weather Summary for the Past Weeks

 TemperatureHumidityPressure
High57 °F (Apr 22, 1:20 pm)100% (Apr 20, 7:20 am)30.63 "Hg (Apr 20, 7:20 am)
Low30 °F (Apr 25, 4:50 am)40% (Apr 24, 5:50 pm)29.89 "Hg (Apr 24, 4:20 pm)
Average47 °F74%30.21 "Hg
* Reported Apr 11 5:20 pm — Apr 26 5:20 pm, Leicester, Weather by CustomWeather, © 2017

Note: Actual official high and low records may vary slightly from our data, if they occured in-between our weather recording intervals... More about our weather records

Advertising

Leicester Weather History for the Previous 24 Hours

Scroll right to see more
 ConditionsComfort  
Time TempWeatherWind HumidityBarometerVisibility
5:20 pm
Wed, Apr 26
46 °FScattered clouds.9 mph50%30.09 "HgN/A
4:50 pm45 °FBroken clouds.9 mph57%30.09 "HgN/A
4:20 pm46 °FPartly sunny.16 mph46%30.09 "HgN/A
3:50 pm46 °FScattered clouds.14 mph53%30.09 "HgN/A
3:20 pm48 °FScattered clouds.14 mph54%30.09 "HgN/A
2:50 pm50 °FScattered clouds.12 mph47%30.09 "HgN/A
2:20 pm46 °FPartly sunny.17 mph53%30.09 "HgN/A
1:50 pm48 °FScattered clouds.15 mph50%30.09 "HgN/A
1:20 pm46 °FScattered showers. Partly sunny.16 mph57%30.09 "HgN/A
12:50 pm45 °FSprinkles. Partly sunny.15 mph61%30.09 "HgN/A
12:20 pm45 °FPartly sunny.14 mph61%30.09 "HgN/A
10:50 am43 °FPartly sunny.13 mph66%30.09 "HgN/A
10:20 am41 °FPartly sunny.18 mph70%30.09 "HgN/A
9:50 am41 °FPartly sunny.16 mph70%30.09 "HgN/A
9:20 am41 °FPartly sunny.15 mph76%30.09 "HgN/A
8:50 am41 °FScattered clouds.13 mph76%30.09 "HgN/A
8:20 am39 °FScattered clouds.15 mph81%30.07 "HgN/A
7:50 am39 °FScattered clouds.15 mph81%30.07 "HgN/A
7:20 am37 °FScattered clouds.13 mph87%30.07 "HgN/A
6:50 am37 °FScattered clouds.12 mph81%30.07 "HgN/A
6:20 am37 °FScattered clouds.14 mph81%30.07 "HgN/A
5:50 am37 °FPartly sunny.13 mph81%30.07 "HgN/A
5:20 am37 °FPassing clouds.10 mph87%30.04 "HgN/A
4:50 am37 °FPassing clouds.13 mph87%30.04 "HgN/A
4:20 am37 °FPassing clouds.10 mph87%30.04 "HgN/A
3:50 am37 °FPassing clouds.12 mph87%30.04 "HgN/A
3:20 am37 °FPassing clouds.13 mph87%30.04 "HgN/A
2:50 am36 °FPassing clouds.12 mph93%30.04 "HgN/A
2:20 am37 °FPassing clouds.13 mph87%30.04 "HgN/A
1:50 am37 °FPassing clouds.7 mph93%30.04 "HgN/A
1:20 am37 °FPassing clouds.9 mph87%30.04 "HgN/A
12:50 am37 °FPassing clouds.7 mph87%30.04 "HgN/A
12:20 am37 °FPassing clouds.12 mph87%30.04 "HgN/A
11:50 pm
Tue, Apr 25
36 °FPassing clouds.10 mph93%30.04 "HgN/A
11:20 pm36 °FPassing clouds.9 mph93%30.04 "HgN/A
10:50 pm36 °FPassing clouds.12 mph93%30.01 "HgN/A
10:20 pm36 °FPassing clouds.8 mph93%30.01 "HgN/A
9:50 pm36 °FPassing clouds.3 mph93%30.01 "HgN/A
9:20 pm36 °FLight rain. Partly cloudy.No wind100%30.01 "HgN/A
8:50 pm37 °FScattered showers. Partly cloudy.7 mph93%30.01 "HgN/A
8:20 pm39 °FScattered showers. Partly sunny.7 mph87%29.98 "HgN/A
7:50 pm39 °FScattered showers. Scattered clouds.7 mph87%29.98 "HgN/A
7:20 pm39 °FScattered clouds.7 mph87%29.98 "HgN/A
6:50 pm39 °FScattered clouds.5 mph87%29.98 "HgN/A
6:20 pm39 °FScattered showers. Scattered clouds.6 mph87%29.98 "HgN/A
Weather by CustomWeather, © 2017

See weather overviewHow to use our weather pages